Wind_Speed
17 18 18 19 19 19 19 19 18 17 16 14 13 13 13 14 14 14 15 17 19 19 19 19 19 19 19 17 15 14 13 13 12 12 12 13 13 13 12 13 13 12 12
17 18 19 19 20 20 20 19 18 17 16 14 13 12 12 13 14 14 15 17 18 20 19 19 20 21 20 19 18 16 15 14 14 13 13 13 13 13 13 12 12 12 11
18 19 19 20 20 20 20 19 18 17 16 14 12 11 11 11 13 13 15 16 18 19 20 20 20 21 22 20 19 17 16 16 16 15 15 15 14 14 13 13 12 11 11
18 19 20 21 21 21 20 19 18 17 16 13 12 11 10 10 11 12 14 16 18 19 20 21 21 21 22 22 21 19 18 17 17 16 16 16 16 15 14 13 12 12 11
18 19 20 21 22 21 20 19 18 17 15 13 12 11 10 9 10 11 13 15 17 19 20 21 22 22 23 23 23 21 19 18 18 18 18 17 17 16 14 14 13 12 11
18 19 20 21 22 21 21 20 19 17 15 13 11 10 9 9 9 10 13 14 17 18 19 21 23 23 23 24 24 23 21 20 19 19 19 18 18 17 16 15 14 13 12
18 19 20 21 22 21 21 20 20 18 15 13 10 9 8 7 7 9 12 14 16 18 19 21 23 23 24 24 24 25 23 22 21 21 20 20 19 18 16 15 15 14 13
18 19 20 21 21 22 21 21 20 18 15 13 10 8 7 6 6 7 9 12 15 17 19 20 22 23 24 24 24 25 25 24 23 22 22 21 20 18 17 16 15 15 14
18 19 19 20 21 21 21 21 20 18 15 13 10 8 6 6 5 6 8 10 13 16 18 20 21 22 24 25 26 26 26 25 24 23 23 22 21 20 19 18 17 16 16
18 18 19 20 20 21 20 20 19 18 16 14 11 9 7 6 5 5 7 9 11 14 17 19 21 22 23 24 25 26 26 26 25 24 24 23 22 21 20 19 18 17 17
18 18 19 19 20 20 20 19 19 18 16 14 11 9 8 7 6 5 6 7 9 12 15 19 21 22 23 24 25 26 26 27 26 25 24 24 23 22 22 21 20 19 19
17 18 19 19 19 20 19 19 18 17 16 15 12 10 9 8 7 5 5 7 8 11 13 17 20 22 22 23 24 25 26 26 26 26 25 24 24 23 23 23 23 21 21
17 17 18 19 19 20 19 19 18 17 16 15 13 11 10 9 7 6 6 7 9 10 12 15 18 20 21 23 24 24 26 26 27 27 26 25 24 24 23 23 23 23 22
17 18 18 19 20 20 19 19 18 17 16 14 13 12 11 9 9 8 7 7 8 10 11 13 16 18 20 21 23 24 24 25 26 27 27 26 25 24 25 25 25 24 23
18 18 18 19 19 20 20 20 19 18 16 14 13 13 12 10 9 9 7 7 8 9 11 13 16 19 19 20 22 24 25 25 25 27 27 27 26 25 25 26 26 26 25
18 19 19 19 19 20 20 20 20 19 17 15 14 13 13 11 10 10 8 7 8 8 10 12 15 17 18 20 22 23 24 25 25 26 27 27 27 26 26 26 26 26 26
20 20 20 20 20 20 20 21 20 20 19 17 16 15 13 12 12 11 10 9 8 9 10 11 13 16 18 20 21 24 25 25 25 25 26 26 27 27 27 27 27 27 27
21 21 21 21 21 21 21 21 21 21 20 18 17 16 15 14 13 13 13 12 11 10 11 12 13 15 17 19 21 23 24 24 25 26 27 27 27 28 28 28 28 28 28
22 23 23 23 23 23 22 22 22 21 21 20 19 18 17 16 15 15 14 13 12 12 12 13 15 16 17 19 21 23 23 24 24 25 26 27 28 28 28 28 28 28 28
23 24 24 25 25 25 25 25 24 23 22 22 21 20 19 18 17 16 15 15 15 14 14 14 16 17 18 20 21 22 23 24 24 24 25 26 27 28 28 28 28 28 28
25 26 26 27 27 27 27 27 27 26 25 24 23 21 20 20 19 18 17 17 17 16 16 17 17 18 19 21 22 23 24 24 24 24 25 26 27 28 28 28 28 28 28
27 28 28 29 29 30 30 30 30 29 28 27 26 24 23 22 21 21 20 19 18 19 19 19 19 20 20 21 23 23 24 25 25 25 25 25 27 27 27 28 28 28 28
30 30 31 31 32 32 33 33 32 32 31 30 29 28 27 25 24 24 23 22 21 21 20 20 20 21 21 22 23 23 24 24 25 25 25 25 26 26 27 28 28 28 28
32 33 34 34 35 35 35 35 35 34 34 33 33 32 30 29 28 27 26 25 25 24 23 22 22 22 22 22 23 24 25 25 26 26 26 26 27 27 27 28 29 29 29
36 37 37 38 38 38 38 38 38 37 37 36 36 35 34 33 31 31 30 29 27 27 26 25 25 24 24 24 25 25 25 26 26 26 26 27 27 27 27 28 29 29 29
39 40 41 41 42 42 42 42 42 41 40 40 39 38 37 36 34 34 33 32 31 30 29 28 27 27 26 25 26 26 27 27 27 27 27 27 28 27 27 28 28 29 29
Wind_Direction
343 343 341 340 338 337 333 328 324 319 314 305 296 284 271 262 256 248 239 234 228 225 222 220 216 214 212 212 210 205 203 198 191 185 178 174 171 164 159 161 162 158 157
344 345 344 343 341 339 336 332 328 323 316 309 300 287 272 263 255 247 237 233 228 223 222 221 216 214 213 212 211 210 208 201 196 191 186 181 178 174 168 167 163 161 162
345 345 346 345 344 342 340 336 333 328 321 314 303 291 277 264 253 245 237 232 228 224 222 219 216 215 213 212 212 212 209 206 200 196 192 188 185 183 178 176 175 174 174
345 346 347 347 347 345 343 340 337 332 327 320 309 297 282 267 255 244 234 229 227 225 223 219 217 215 214 213 212 212 211 208 204 201 197 193 189 188 186 186 185 183 179
344 346 348 349 349 347 346 344 341 337 332 325 315 302 285 271 257 244 234 229 226 225 224 220 217 216 214 213 213 214 213 209 207 204 200 196 194 195 194 195 192 191 189
344 346 348 349 349 349 348 346 344 341 336 329 320 309 292 277 260 245 236 229 225 224 222 220 219 218 216 214 214 215 215 211 209 208 205 202 201 201 201 201 200 199 199
344 346 348 350 352 352 351 349 347 345 341 334 328 318 302 285 265 247 238 230 225 223 221 219 219 218 217 215 215 216 215 213 211 211 209 207 206 206 206 206 205 206 206
343 345 347 349 352 352 352 352 351 350 347 344 338 330 314 296 275 253 241 232 228 225 222 220 218 218 217 216 216 216 215 215 212 212 212 210 210 210 210 210 210 211 213
343 345 347 348 350 352 353 353 354 355 354 352 347 341 328 312 294 265 247 237 233 229 225 221 219 218 218 218 218 218 216 216 214 213 215 215 215 216 216 216 216 217 217
346 346 348 349 350 352 354 355 356 357 357 356 352 346 337 324 309 280 254 242 238 233 228 222 220 219 218 220 219 217 217 218 217 216 217 218 218 218 219 220 221 221 221
346 347 349 350 352 353 355 357 359 360 359 358 356 351 345 336 323 297 267 252 242 237 231 225 222 219 219 220 220 217 217 218 218 220 218 219 221 222 222 223 225 226 227
344 347 349 351 353 355 356 357 359 360 359 358 357 354 348 340 331 308 278 262 249 240 235 229 225 220 220 221 221 219 218 219 220 221 220 221 222 224 226 227 228 230 232
342 345 348 349 351 354 355 356 356 358 357 356 355 354 351 345 337 319 293 271 257 247 237 232 226 221 221 223 221 220 219 220 221 223 224 223 225 225 226 228 229 231 233
339 340 343 346 348 350 352 352 352 353 353 351 351 350 346 341 340 328 305 285 265 252 243 233 225 225 225 224 219 220 220 223 224 225 226 226 228 229 230 230 232 234 235
337 337 339 341 343 345 347 347 346 346 346 345 344 343 342 335 329 328 312 293 275 256 247 236 229 228 229 226 223 222 222 224 228 228 228 230 232 233 234 236 237 237 239
336 336 336 337 338 339 340 341 341 340 338 337 336 333 332 327 320 319 314 301 284 267 252 240 234 233 232 228 227 227 227 229 230 232 230 231 234 235 236 237 238 240 241
333 332 332 332 332 333 333 334 334 334 332 329 328 325 321 316 312 311 305 292 282 269 254 244 240 236 233 229 229 229 232 233 233 233 232 233 235 237 238 239 240 241 243
332 331 329 328 328 327 327 327 327 327 327 325 321 318 315 309 305 303 298 289 279 267 256 249 244 238 233 230 231 230 231 233 234 235 236 236 238 239 239 241 242 243 245
328 328 328 326 325 324 322 321 320 320 319 319 317 312 307 303 300 299 296 289 280 269 260 254 248 242 238 235 234 233 232 232 234 236 237 239 240 241 241 242 243 245 247
324 323 323 322 320 319 318 317 315 313 312 311 310 307 303 297 293 292 290 285 276 270 264 257 251 246 243 240 238 235 233 234 236 237 240 242 241 241 241 243 245 246 247
320 319 319 318 317 315 314 312 311 309 307 305 304 301 298 294 289 286 285 281 274 269 265 259 254 250 247 242 239 238 237 237 239 241 243 243 242 241 243 245 246 248 249
317 316 316 315 313 312 310 308 306 304 303 301 298 295 291 287 285 282 280 278 273 268 265 261 257 252 249 245 242 240 240 239 240 241 243 243 243 243 244 245 246 247 248
314 314 313 312 310 308 306 304 302 300 297 296 294 291 287 283 280 278 276 274 271 267 264 262 259 255 250 246 243 241 242 242 242 242 242 242 243 244 245 246 247 248 250
312 311 311 309 307 306 304 302 300 297 294 291 289 287 284 280 276 274 272 271 268 265 262 260 258 256 253 248 245 243 242 243 242 242 243 244 245 246 246 247 248 249 252
309 309 308 307 306 304 301 300 297 295 292 288 285 282 280 276 273 271 269 267 265 263 261 258 257 255 254 251 247 245 245 244 244 244 245 247 248 248 248 249 250 251 252
307 306 306 305 304 302 300 297 295 293 290 287 283 280 276 272 269 268 266 264 262 260 258 256 255 254 253 251 248 247 247 246 246 246 247 248 248 249 249 249 251 252 253
Height
5854 5851 5848 5845 5842 5839 5836 5834 5831 5829 5826 5825 5824 5824 5824 5825 5826 5828 5830 5832 5835 5838 5841 5844 5848 5851 5855 5858 5861 5863 5866 5868 5870 5872 5874 5877 5879 5881 5883 5886 5888 5890 5893
5852 5850 5847 5843 5840 5837 5834 5831 5828 5825 5823 5822 5821 5820 5821 5822 5823 5825 5827 5829 5832 5835 5838 5842 5845 5849 5853 5856 5859 5862 5865 5868 5870 5872 5875 5877 5879 5882 5884 5887 5889 5891 5894
5851 5848 5845 5842 5838 5835 5831 5828 5825 5823 5820 5819 5817 5817 5817 5818 5819 5821 5823 5826 5829 5832 5835 5839 5842 5846 5850 5854 5858 5861 5864 5867 5869 5872 5874 5877 5879 5882 5884 5887 5889 5892 5894
5850 5847 5844 5840 5837 5833 5829 5826 5823 5820 5818 5816 5815 5814 5814 5815 5816 5818 5820 5823 5826 5829 5833 5836 5840 5844 5848 5852 5855 5859 5862 5865 5868 5871 5874 5876 5879 5882 5884 5887 5889 5892 5894
5849 5846 5843 5839 5835 5832 5828 5824 5821 5818 5815 5813 5812 5812 5811 5812 5813 5815 5817 5820 5823 5826 5829 5833 5837 5841 5845 5849 5853 5857 5860 5864 5867 5869 5872 5875 5878 5881 5884 5886 5889 5891 5894
5847 5845 5842 5838 5834 5830 5827 5823 5819 5816 5813 5812 5810 5809 5809 5809 5810 5812 5814 5816 5819 5823 5826 5830 5834 5838 5842 5846 5850 5854 5858 5861 5865 5868 5871 5874 5877 5880 5883 5885 5888 5890 5893
5846 5844 5841 5837 5833 5829 5826 5822 5818 5815 5812 5810 5809 5808 5807 5807 5808 5809 5811 5814 5817 5820 5823 5827 5831 5835 5839 5843 5847 5851 5855 5859 5862 5866 5869 5872 5875 5878 5881 5884 5887 5889 5892
5845 5843 5840 5836 5833 5829 5825 5821 5817 5814 5811 5809 5808 5807 5806 5807 5807 5808 5809 5811 5814 5817 5820 5823 5827 5831 5835 5840 5844 5848 5852 5856 5859 5863 5867 5870 5873 5876 5879 5882 5885 5887 5890
5844 5841 5839 5835 5832 5828 5824 5821 5817 5814 5811 5809 5807 5806 5806 5806 5805 5806 5807 5809 5812 5814 5817 5820 5824 5828 5832 5836 5840 5844 5849 5853 5857 5860 5864 5867 5871 5874 5877 5880 5883 5885 5888
5843 5840 5837 5834 5831 5828 5824 5820 5817 5814 5811 5809 5807 5806 5805 5805 5805 5806 5807 5808 5809 5811 5814 5817 5821 5824 5828 5832 5836 5841 5845 5849 5853 5857 5861 5865 5868 5871 5874 5877 5880 5883 5886
5842 5839 5836 5833 5830 5827 5824 5820 5817 5814 5812 5809 5807 5806 5805 5805 5804 5805 5805 5806 5808 5809 5811 5814 5817 5820 5825 5829 5833 5837 5842 5846 5850 5854 5858 5861 5865 5868 5871 5874 5877 5880 5883
5841 5838 5836 5833 5830 5827 5824 5820 5817 5815 5812 5810 5808 5807 5806 5805 5804 5804 5804 5805 5806 5807 5809 5811 5814 5817 5821 5825 5829 5833 5838 5842 5846 5850 5854 5858 5861 5864 5867 5870 5873 5876 5879
5840 5837 5835 5832 5829 5826 5823 5821 5818 5815 5813 5811 5809 5807 5806 5805 5804 5804 5804 5804 5804 5805 5807 5808 5811 5814 5818 5822 5826 5830 5834 5838 5842 5846 5850 5854 5857 5860 5863 5866 5869 5872 5875
5838 5836 5834 5831 5829 5826 5823 5821 5818 5815 5813 5811 5809 5807 5806 5805 5804 5803 5802 5802 5803 5804 5805 5806 5808 5811 5815 5818 5822 5826 5830 5834 5838 5842 5845 5849 5853 5856 5859 5862 5865 5867 5870
5836 5834 5832 5830 5827 5825 5822 5820 5818 5815 5813 5811 5809 5807 5806 5804 5803 5802 5801 5801 5801 5802 5803 5804 5806 5809 5812 5815 5818 5822 5826 5830 5833 5837 5841 5844 5848 5851 5854 5857 5860 5863 5865
5834 5832 5830 5828 5826 5824 5821 5819 5816 5814 5812 5810 5808 5806 5805 5804 5802 5801 5800 5800 5799 5800 5801 5802 5804 5806 5808 5811 5814 5818 5821 5825 5828 5832 5835 5839 5842 5845 5849 5851 5854 5857 5860
5831 5829 5827 5825 5823 5821 5819 5817 5815 5812 5810 5808 5806 5805 5803 5802 5801 5800 5799 5798 5798 5798 5798 5799 5801 5802 5805 5807 5810 5813 5817 5820 5823 5827 5830 5833 5837 5840 5843 5846 5848 5851 5854
5829 5827 5825 5822 5820 5818 5816 5814 5812 5810 5808 5806 5804 5803 5801 5800 5798 5797 5796 5796 5795 5796 5796 5797 5798 5799 5801 5804 5806 5809 5812 5815 5818 5821 5824 5827 5831 5834 5837 5839 5842 5845 5847
5826 5824 5821 5819 5817 5815 5813 5811 5809 5807 5805 5803 5801 5799 5798 5797 5795 5794 5793 5793 5792 5792 5793 5794 5795 5796 5797 5799 5802 5804 5807 5809 5812 5815 5818 5821 5824 5827 5830 5833 5835 5838 5840
5822 5820 5817 5815 5813 5810 5808 5806 5804 5802 5801 5799 5797 5795 5793 5792 5791 5791 5790 5789 5789 5789 5789 5790 5791 5792 5793 5795 5797 5799 5802 5804 5807 5809 5812 5814 5817 5820 5823 5826 5828 5831 5833
5817 5815 5812 5810 5807 5805 5802 5800 5798 5796 5795 5793 5791 5790 5788 5787 5787 5786 5785 5785 5784 5784 5785 5785 5786 5787 5788 5790 5792 5794 5796 5798 5801 5803 5805 5808 5810 5813 5816 5818 5821 5823 5825
5811 5809 5806 5804 5801 5798 5796 5793 5791 5789 5787 5786 5785 5783 5782 5782 5781 5780 5780 5779 5779 5779 5780 5780 5780 5781 5783 5784 5786 5788 5790 5792 5795 5797 5799 5801 5803 5806 5808 5811 5813 5815 5818
5804 5802 5799 5796 5794 5791 5788 5785 5782 5781 5779 5778 5776 5775 5774 5774 5774 5773 5773 5773 5773 5773 5773 5774 5774 5775 5777 5778 5779 5781 5783 5786 5788 5790 5792 5794 5796 5798 5801 5803 5805 5807 5809
5797 5794 5791 5788 5785 5782 5778 5776 5773 5771 5770 5768 5767 5766 5765 5765 5765 5765 5765 5765 5765 5766 5766 5767 5768 5768 5770 5771 5773 5775 5776 5779 5781 5783 5785 5787 5789 5791 5793 5795 5797 5799 5801
5788 5784 5781 5778 5775 5772 5768 5765 5762 5760 5758 5757 5756 5755 5754 5754 5755 5755 5756 5756 5757 5757 5758 5759 5760 5761 5762 5764 5765 5767 5769 5771 5773 5775 5777 5779 5781 5783 5785 5786 5788 5791 5792
5777 5774 5770 5766 5763 5759 5756 5752 5749 5746 5745 5744 5743 5742 5742 5742 5743 5743 5744 5746 5747 5748 5749 5750 5751 5753 5754 5756 5757 5759 5762 5764 5765 5767 5769 5771 5773 5775 5777 5779 5780 5782 5784